WB0RXX Weather Reports


Display with metric or nautical units.
time (UTC)temp
F
wind
direction
speed
MPH
gust
MPH
rain 1hr
in
rain 24hr
in
rain mn
in
humidity
%
barometer
mb
20260901174006 80 18 2.0 5.0 0.00 0.00 0.00 55 1015.0
20260901170003 80 140 0.0 0.0 0.00 0.00 0.00 55 1015.4
20260901145004 70 14 2.0 7.0 0.00 0.00 0.00 78 1015.4
20260901141003 69 9 0.0 0.0 0.00 0.00 0.00 81 1015.8
20260901134002 66 9 0.0 0.0 0.00 0.00 0.00 89 1015.7
20260901125004 59 9 0.0 0.0 0.00 0.00 0.00 95 1015.5
20260901123003 59 9 0.0 0.0 0.00 0.00 0.00 95 1015.4
20260901122003 60 9 0.0 0.0 0.00 0.00 0.00 96 1015.2
20260901114005 60 9 0.0 0.0 0.00 0.00 0.00 96 1014.6
20260901113003 60 9 0.0 0.0 0.00 0.00 0.00 96 1014.6
20260901110005 61 9 0.0 0.0 0.00 0.00 0.00 95 1014.4
20260901105004 61 9 0.0 0.0 0.00 0.00 0.00 96 1014.4
20260901103004 60 9 0.0 0.0 0.00 0.00 0.00 95 1014.5
20260901095005 60 9 0.0 0.0 0.00 0.00 0.00 94 1014.3
20260901091005 61 9 0.0 0.0 0.00 0.00 0.00 91 1013.9
20260901085005 64 9 0.0 0.0 0.00 0.00 0.00 92 1013.7
20260901083006 64 9 1.0 2.0 0.00 0.00 0.00 92 1013.7
20260901081006 64 9 0.0 0.0 0.00 0.00 0.00 91 1013.8
20260901073005 64 9 0.0 0.0 0.00 0.00 0.00 89 1013.7
20260901064003 64 9 2.0 3.0 0.00 0.00 0.00 90 1014.2
20260901063004 65 9 0.0 0.0 0.00 0.00 0.00 89 1014.2
20260901051004 69 9 0.0 0.0 0.00 0.00 0.00 85 1014.4
20260901043005 70 9 0.0 0.0 0.00 0.00 0.00 85 1014.1
20260901034004 71 9 0.0 0.0 0.00 0.00 0.00 82 1013.8
20260901032003 71 9 0.0 0.0 0.00 0.00 0.00 82 1013.7
20260901025004 72 9 0.0 0.0 0.00 0.00 0.00 82 1013.6
20260901020003 73 9 0.0 0.0 0.00 0.00 0.00 77 1013.0
20260901003005 78 9 0.0 0.0 0.00 0.00 0.00 68 1012.7
20260901001004 79 9 0.0 0.0 0.00 0.00 0.00 65 1012.7
20260831233005 82 9 0.0 0.0 0.00 0.00 0.00 49 1012.9
20260831225004 82 9 0.0 0.0 0.00 0.00 0.00 46 1013.1
20260831223004 83 9 0.0 0.0 0.00 0.00 0.00 46 1012.9
20260831221005 83 9 0.0 0.0 0.00 0.00 0.00 42 1012.9
20260831211006 84 195 0.0 0.0 0.00 0.00 0.00 52 1013.0
20260831210003 83 195 0.0 0.0 0.00 0.00 0.00 51 1013.0
20260831205005 83 5 1.0 0.0 0.00 0.00 0.00 50 1013.1
20260831203003 83 15 3.0 3.0 0.00 0.00 0.00 48 1013.2
20260831194003 84 349 0.0 0.0 0.00 0.00 0.00 51 1013.1
20260831192005 82 9 3.0 6.0 0.00 0.00 0.00 55 1013.3
20260831182003 81 351 1.0 4.0 0.00 0.00 0.00 57 1012.9